NY5V Weather Reports


Display with metric or nautical units.
time (UTC)temp
F
wind
direction
speed
MPH
gust
MPH
rain 1hr
in
rain 24hr
in
rain mn
in
humidity
%
barometer
mb
20260505050812 70 40 1.0 1.0 0.00 0.00 0.00 83 1008.7
20260505040803 71 4 4.0 7.0 0.00 0.00 0.00 79 1008.8
20260505035803 71 309 4.0 6.0 0.00 0.00 0.00 78 1008.9
20260505034802 71 80 1.0 3.0 0.00 0.00 0.00 77 1008.8
20260505033802 72 5 2.0 2.0 0.00 0.00 0.00 76 1008.8
20260505032757 72 90 2.0 2.0 0.00 0.00 0.00 75 1008.7
20260505031756 72 15 3.0 3.0 0.00 0.00 0.00 74 1008.5
20260505030756 73 13 2.0 3.0 0.00 0.00 0.00 73 1008.5
20260505025753 73 47 0.0 0.0 0.00 0.00 0.00 73 1008.3
20260505024749 73 10 2.0 4.0 0.00 0.00 0.00 71 1008.2
20260505023749 73 49 1.0 1.0 0.00 0.00 0.00 71 1008.2
20260505022749 73 4 1.0 2.0 0.00 0.00 0.00 70 1008.4
20260505021749 73 28 1.0 2.0 0.00 0.00 0.00 69 1008.3
20260505020747 74 50 2.0 2.0 0.00 0.00 0.00 68 1008.5
20260505015746 74 80 1.0 2.0 0.00 0.00 0.00 68 1008.6
20260505014746 74 39 1.0 1.0 0.00 0.00 0.00 68 1008.4
20260505013745 74 45 0.0 1.0 0.00 0.00 0.00 67 1008.6
20260505012740 74 37 2.0 4.0 0.00 0.00 0.00 66 1008.2
20260505011739 75 38 4.0 6.0 0.00 0.00 0.00 65 1008.1
20260505010738 75 31 3.0 3.0 0.00 0.00 0.00 64 1008.4
20260505005737 75 37 2.0 2.0 0.00 0.00 0.00 64 1008.2
20260505004737 76 37 1.0 2.0 0.00 0.00 0.00 63 1008.1
20260505003736 76 38 1.0 1.0 0.00 0.00 0.00 61 1008.2
20260505002736 77 22 2.0 3.0 0.00 0.00 0.00 60 1008.1
20260505001737 77 337 1.0 3.0 0.00 0.00 0.00 60 1008.3
20260505000737 77 49 1.0 2.0 0.00 0.00 0.00 60 1008.3
20260504235731 78 354 4.0 4.0 0.00 0.00 0.00 59 1008.4
20260504234730 78 353 3.0 4.0 0.00 0.00 0.00 59 1008.7
20260504233729 78 31 3.0 4.0 0.00 0.00 0.00 58 1008.8
20260504232728 78 55 2.0 2.0 0.00 0.00 0.00 59 1008.9
20260504231728 79 46 3.0 6.0 0.00 0.00 0.00 57 1008.9
20260504230726 78 356 2.0 3.0 0.00 0.00 0.00 57 1008.9
20260504225723 79 51 0.0 1.0 0.00 0.00 0.00 57 1008.8
20260504224722 79 354 2.0 2.0 0.00 0.00 0.00 57 1009.0
20260504223722 79 54 3.0 4.0 0.00 0.00 0.00 57 1009.2
20260504222720 79 50 0.0 0.0 0.00 0.00 0.00 55 1009.3
20260504221720 79 312 1.0 4.0 0.00 0.00 0.00 55 1009.3
20260504220720 80 352 2.0 7.0 0.00 0.00 0.00 53 1009.4
20260504215720 79 50 2.0 3.0 0.00 0.00 0.00 54 1009.3
20260504214718 78 45 3.0 6.0 0.00 0.00 0.00 53 1009.7
20260504213718 79 297 2.0 3.0 0.00 0.00 0.00 53 1010.1
20260504212717 79 290 2.0 3.0 0.00 0.00 0.00 55 1010.0
20260504211717 80 313 6.0 8.0 0.00 0.00 0.00 52 1010.4
20260504210716 79 37 1.0 2.0 0.00 0.00 0.00 51 1010.4
20260504205716 79 305 1.0 3.0 0.00 0.00 0.00 52 1010.5
20260504204712 79 29 2.0 3.0 0.00 0.00 0.00 51 1010.9
20260504203709 78 34 3.0 4.0 0.00 0.00 0.00 52 1011.1
20260504202706 79 345 5.0 7.0 0.00 0.00 0.00 52 1011.2
20260504201700 78 319 8.0 10.0 0.00 0.00 0.00 50 1011.4
20260504200655 78 297 5.0 8.0 0.00 0.00 0.00 52 1011.6
20260504195653 79 13 2.0 2.0 0.00 0.00 0.00 52 1011.6
20260504194652 78 311 4.0 6.0 0.00 0.00 0.00 52 1012.1
20260504193650 79 326 3.0 4.0 0.00 0.00 0.00 51 1012.4
20260504192646 77 46 1.0 1.0 0.00 0.00 0.00 53 1012.1
20260504191642 77 12 5.0 7.0 0.00 0.00 0.00 52 1012.2
20260504190640 78 305 6.0 9.0 0.00 0.00 0.00 50 1012.5
20260504185639 77 44 1.0 1.0 0.00 0.00 0.00 52 1012.6
20260504184638 78 319 4.0 4.0 0.00 0.00 0.00 51 1012.6
20260504183636 78 18 2.0 2.0 0.00 0.00 0.00 50 1012.8
20260504182631 77 37 4.0 6.0 0.00 0.00 0.00 51 1013.3
20260504181631 78 0 2.0 2.0 0.00 0.00 0.00 51 1013.3
20260504180628 78 30 2.0 3.0 0.00 0.00 0.00 50 1013.5
20260504175623 77 49 1.0 1.0 0.00 0.00 0.00 52 1013.5
20260504174618 76 20 1.0 1.0 0.00 0.00 0.00 52 1013.7
20260504173617 77 354 1.0 2.0 0.00 0.00 0.00 50 1013.8
20260504172616 76 31 2.0 3.0 0.00 0.00 0.00 51 1014.1
20260504171615 75 35 3.0 3.0 0.00 0.00 0.00 53 1014.1
20260504170614 74 353 3.0 4.0 0.00 0.00 0.00 51 1014.2
20260504150548 69 43 2.0 3.0 0.00 0.00 0.00 62 1015.4
20260504140534 65 12 3.0 3.0 0.00 0.00 0.00 70 1015.2
20260504130527 61 5 3.0 4.0 0.00 0.00 0.00 76 1015.6
20260504110508 59 34 1.0 2.0 0.00 0.00 0.00 80 1014.7
20260504100453 59 30 2.0 2.0 0.00 0.00 0.00 79 1014.9
20260504081430 62 27 1.0 1.0 0.00 0.00 0.00 71 1015.4
20260504080428 63 44 1.0 2.0 0.00 0.00 0.00 71 1015.4